Regional Weather Roundup
Issued by NWS

Home | Current Version | Previous Version | Graphics & Text | Print | Product List | Glossary On
Versions: 1 2 3 4 5 6 7 8 9 10 11 12 13 14 15 16 17 18 19 20 21 22 23 24 25 26 27 28 29 30 31 32 33 34 35 36 37 38 39 40 41 42 43 44 45 46 47 48 49 50
027
ASUS43 KFSD 222210
RWRSD

WEATHER ROUNDUP FOR SOUTH DAKOTA
NATIONAL WEATHER SERVICE SIOUX FALLS SD
500 PM CDT SAT JUL 22 2017

NOTE: "FAIR" INDICATES FEW OR NO CLOUDS BELOW 12,000 FEET WITH NO
SIGNIFICANT WEATHER AND/OR OBSTRUCTIONS TO VISIBILITY.


SDZ001>005-009-010-012>017-222300-
NORTHWEST AND NORTH CENTRAL SOUTH DAKOTA

CITY           SKY/WX    TMP DP  RH WIND       PRES   REMARKS
BUFFALO          N/A     88  39  17 NW20      30.00F
FAITH            N/A     92  38  15 NW18      30.01F
MOBRIDGE       SUNNY     91  50  24 NW15G25   29.91F
$$

SDZ012>016-024>037-041>051-057-063-072>074-222300-
SOUTHWEST AND SOUTH CENTRAL SOUTH DAKOTA

CITY           SKY/WX    TMP DP  RH WIND       PRES   REMARKS
RAPID CTY ARPT SUNNY     91  40  16 NE5       30.06S
PIERRE         SUNNY     94  42  16 N14       29.94F
CUSTER         PTSUNNY   81  36  19 E9        30.22S
ELLSWORTH AFB  SUNNY     90  40  17 N10       30.06F
PHILIP         SUNNY     97  39  13 W8        29.97F
PINE RIDGE     CLOUDY    90  53  28 SE13      30.06F
SPEARFISH      LGT RAIN  88  37  16 NW9       30.12F
WINNER         FAIR      97  49  19 S12       29.97F
$$

SDZ004>011-016>023-039-040-222300-
NORTHEAST SOUTH DAKOTA

CITY           SKY/WX    TMP DP  RH WIND       PRES   REMARKS
ABERDEEN       SUNNY     89  52  28 NW14G22   29.90F
WATERTOWN      SUNNY     85  55  35 NW10      29.92S
BROOKINGS      SUNNY     87  58  37 NW15      29.93S
SISSETON         N/A     88  55  32 W12       29.87S
$$

SDZ017-020-022-023-036>040-048>070-222300-
SOUTHEAST SOUTH DAKOTA

CITY           SKY/WX    TMP DP  RH WIND       PRES   REMARKS
SIOUX FALLS    PTSUNNY   88  61  40 NW13      29.92F
HURON          SUNNY     90  59  35 NW9       29.92S
CHAMBERLAIN    SUNNY     96  57  27 SW7       29.94S
MITCHELL       CLOUDY    90  63  40 CALM      29.93F
YANKTON        CLOUDY    86  68  54 N9        29.93
$$

ABBREVIATIONS USED IN REMARKS
   TC - TEMPERATURE IN CELSIUS
  WCI - WIND CHILL INDEX
   HX - HEAT INDEX
  VSB - VISIBILITY





USA.gov is the U.S. government's official web portal to all federal, state and local government web resources and services.